Regional Weather Roundup
Issued by NWS

Home | Current Version | Previous Version | Graphics & Text | Print | Product List | Glossary On
Versions: 1 2 3 4 5 6 7 8 9 10 11 12 13 14 15 16 17 18 19 20 21 22 23 24 25 26 27 28 29 30 31 32 33 34 35 36 37 38 39 40 41 42 43 44 45 46 47 48 49 50
000
ASUS45 KABQ 240710
RWRNM
NEW MEXICO REGIONAL WEATHER ROUNDUP
NATIONAL WEATHER SERVICE ALBUQUERQUE NM
100 AM MDT THU AUG 24 2017

NOTE: "FAIR" MEANS FEW OR NO CLOUDS BELOW 12,000 FEET AGL WITH NO
       SIGNIFICANT WEATHER OR OBSTRUCTIONS TO VISION.

      THIS PRODUCT IS RELEASED AS TWO VERSIONS.  ONE VERSION NEAR
      THE TOP OF THE HOUR CONTAINING PRELIMINARY DATA FROM ALBUQUERQUE
      AND OTHER STATIONS.  A FINAL VERSION WITH ADDITIONAL DATA IS
      ISSUED ABOUT 10 MINUTES AFTER THE HOUR.

NMZ501-503-504-510>518-240800-
NORTHWEST PLATEAU/NORTHCENTRAL MOUNTAINS

CITY           SKY/WX    TMP DP  RH WIND       PRES   REMARKS
FARMINGTON     FAIR      73  45  36 E6        30.12R
LOS ALAMOS     FAIR      62  47  57 S12       30.29S
SANTA FE       FAIR      65  51  60 W10       30.25F
TAOS           FAIR      60  52  74 CALM      30.31R
ANGEL FIRE     MOCLDY    51  49  94 N7        30.38F

$$
NMZ402-403-502-505>509-240800-
WESTCENTRAL MOUNTAINS/SOUTHWEST MOUNTAINS

CITY           SKY/WX    TMP DP  RH WIND       PRES   REMARKS
GALLUP         MOCLDY    61  48  62 SW14G28   30.26F
GRANTS         FAIR      60  49  66 CALM      30.32S
SILVER CITY    DRIZZLE   62  59  91 N3        30.28S

$$
NMZ407-409-411-412-240800-
SOUTHERN DESERTS

CITY           SKY/WX    TMP DP  RH WIND       PRES   REMARKS
DEMING         FAIR      66  64  93 NE8       30.23R
LAS CRUCES     RAIN      64  62  96 NW10      30.25F
HOLLOMAN AFB   MOCLDY    65  65 100 NE9       30.21F
ALAMOGORDO     FAIR      64  61  88 N14       30.21F
T OR C         LGT RAIN  64  63  96 W6        30.26F

$$
NMZ519>523-240800-
CENTRAL VALLEYS/CENTRAL HIGHLANDS

CITY           SKY/WX    TMP DP  RH WIND       PRES   REMARKS
ALBUQUERQUE    MOCLDY    66  55  67 S13       30.24R
MORIARTY ARPT  FAIR      63  58  82 CALM      30.27R
CLINES CORNERS FAIR      60  49  66 W14       30.30F
BELEN          FAIR      64  56  73 S21G29    30.18F
SOCORRO        DRIZZLE   62  58  88 W8        30.20F

$$
NMZ524>526-539-540-240800-
SOUTHCENTRAL MOUNTAINS

CITY           SKY/WX    TMP DP  RH WIND       PRES   REMARKS
RUIDOSO        FAIR      57  50  77 NW10      30.31S

$$
NMZ527>531-240800-
NORTHEAST HIGHLANDS/NORTHEAST PLAINS

CITY           SKY/WX    TMP DP  RH WIND       PRES   REMARKS
LAS VEGAS      FAIR      61  58  90 S9        30.28F
RATON          FAIR      56  55  97 SW7       30.28S
CLAYTON        FAIR      62  62 100 S8        30.18F

$$
NMZ532>537-240800-
EASTCENTRAL PLAINS

CITY           SKY/WX    TMP DP  RH WIND       PRES   REMARKS
SANTA ROSA     PTSUNNY   69  62  78 SE9       30.16R
TUCUMCARI      CLOUDY    71  65  81 S9        30.10F
CANNON AFB     FAIR      66  66 100 SE7       30.17R
CLOVIS AIRPORT FAIR      65  64  97 SE6       30.16F

$$
NMZ028-029-538-240800-
SOUTHEAST PLAINS

CITY           SKY/WX    TMP DP  RH WIND       PRES   REMARKS
ROSWELL        MOCLDY    77  63  61 S6        30.08S
ARTESIA        FAIR      75  66  73 SE10      30.07S
CARLSBAD       MOCLDY    76  69  79 SE5       30.05S
HOBBS          CLOUDY    70  66  88 SE7       30.11S


$$




USA.gov is the U.S. government's official web portal to all federal, state and local government web resources and services.